Southend-On-Sea, United Kingdom

8:14 AM BST on August 23, 2017 (GMT +0100)
Southend

Weather History for EGMC - November, 2012

Change the Weather History Date:

Wednesday, November 28, 2012

  Actual Average Record
Temperature  
Mean Temperature 40 °F -  
Max Temperature 44 °F 44 °F 59 °F (2000)
Min Temperature 37 °F 36 °F 23 °F (2010)
Degree Days  
Heating Degree Days 24    
Moisture  
Dew Point 37 °F    
Average Humidity 84    
Maximum Humidity 87    
Minimum Humidity 81    
Precipitation  
Precipitation 0.00 in - - ()
Sea Level Pressure  
Sea Level Pressure 29.87 in    
Wind  
Wind Speed 12 mph ()    
Max Wind Speed 16 mph    
Max Gust Speed -    
Visibility 6.2 miles    
Events      
Averages and records for this station are not official NWS values.
T = Trace of Precipitation, MM = Missing Value Source: Averaged Metar Reports

Daily Weather History Graph

Daily Weather History Graph

Search for Another Location

Airport or City:

Trip Planner

Search our weather history database for the weather conditions in past years. The results will help you decide how hot, cold, wet, or windy it might be!

Date:

Astronomy

Nov. 28, 2012 Rise Set
Actual Time 7:36 AM GMT 3:53 PM GMT
Civil Twilight 6:58 AM GMT 4:32 PM GMT
Nautical Twilight 6:16 AM GMT 5:14 PM GMT
Astronomical Twilight 5:35 AM GMT 5:54 PM GMT
Moon 3:56 PM GMT (11/28) 7:21 AM GMT (11/28)
Length of Visible Light 9h 33m
Length of Day
8h 16m
Full, 100% of the Moon is Illuminated
Nov 28
Full
Nov 28
Full
Dec 6
Last Quarter
Dec 13
New
Dec 20
First Quarter

Hourly Weather History & Observations

Time (GMT) Temp. Windchill Dew Point Humidity Pressure Visibility Wind Dir Wind Speed Gust Speed Precip Events Conditions
12:50 AM 42.8 °F 36.2 °F 37.4 °F 81% 29.80 in 6.2 mi North 12.7 mph - N/A   Partly Cloudy
1:50 AM 42.8 °F 36.6 °F 37.4 °F 81% 29.80 in 6.2 mi North 11.5 mph - N/A   Scattered Clouds
2:50 AM 41.0 °F 34.3 °F 37.4 °F 87% 29.80 in 6.2 mi North 11.5 mph - N/A   Scattered Clouds
3:50 AM 41.0 °F 33.9 °F 37.4 °F 87% 29.80 in 6.2 mi North 12.7 mph - N/A   Scattered Clouds
4:50 AM 41.0 °F 33.9 °F 37.4 °F 87% 29.83 in 5.6 mi NNW 12.7 mph - N/A   Scattered Clouds
5:20 AM 41.0 °F 33.9 °F 37.4 °F 87% 29.83 in 6.2 mi NNW 12.7 mph - N/A   Partly Cloudy
5:50 AM 41.0 °F 34.3 °F 37.4 °F 87% 29.83 in 6.2 mi NNW 11.5 mph - N/A   Scattered Clouds
6:20 AM 41.0 °F 35.2 °F 37.4 °F 87% 29.86 in 6.2 mi NNW 9.2 mph - N/A   Scattered Clouds
6:50 AM 41.0 °F 34.3 °F 37.4 °F 87% 29.86 in 6.2 mi NNW 11.5 mph - N/A   Partly Cloudy
7:20 AM 41.0 °F 34.3 °F 37.4 °F 87% 29.86 in 6.2 mi NNW 11.5 mph - N/A   Mostly Cloudy
7:50 AM 41.0 °F 34.3 °F 37.4 °F 87% 29.86 in 6.2 mi NNW 11.5 mph - N/A   Mostly Cloudy
8:20 AM 41.0 °F 33.9 °F 37.4 °F 87% 29.86 in 6.2 mi NNW 12.7 mph - N/A   Mostly Cloudy
8:50 AM 41.0 °F 33.9 °F 37.4 °F 87% 29.89 in 6.2 mi NNW 12.7 mph - N/A   Mostly Cloudy
9:20 AM 42.8 °F 37.0 °F 37.4 °F 81% 29.89 in 6.2 mi NNW 10.4 mph - N/A   Mostly Cloudy
9:50 AM 42.8 °F 37.5 °F 39.2 °F 87% 29.89 in 6.2 mi NNW 9.2 mph - N/A   Mostly Cloudy
10:20 AM 42.8 °F 36.2 °F 39.2 °F 87% 29.89 in 6.2 mi NNW 12.7 mph - N/A   Mostly Cloudy
10:50 AM 42.8 °F 36.2 °F 39.2 °F 87% 29.89 in 6.2 mi NNW 12.7 mph - N/A   Mostly Cloudy
11:20 AM 44.6 °F 37.8 °F 39.2 °F 81% 29.89 in 6.2 mi NNW 15.0 mph - N/A   Scattered Clouds
11:50 AM 44.6 °F 38.4 °F 39.2 °F 81% 29.89 in 6.2 mi NNW 12.7 mph - N/A   Scattered Clouds
12:20 PM 44.6 °F 38.1 °F 39.2 °F 81% 29.89 in 6.2 mi NNW 13.8 mph - N/A   Scattered Clouds
12:50 PM 44.6 °F 38.1 °F 39.2 °F 81% 29.86 in 6.2 mi NNW 13.8 mph - N/A   Scattered Clouds
1:20 PM 44.6 °F 38.1 °F 39.2 °F 81% 29.86 in 6.2 mi NNW 13.8 mph - N/A   Scattered Clouds
1:50 PM 44.6 °F 38.4 °F 39.2 °F 81% 29.86 in 6.2 mi NNW 12.7 mph - N/A   Scattered Clouds
2:20 PM 44.6 °F 38.1 °F 39.2 °F 81% 29.86 in 6.2 mi NNW 13.8 mph - N/A   Scattered Clouds
2:50 PM 44.6 °F 38.8 °F 39.2 °F 81% 29.86 in 6.2 mi NNW 11.5 mph - N/A   Mostly Cloudy
3:20 PM 44.6 °F 38.1 °F 39.2 °F 81% 29.86 in 6.2 mi NNW 13.8 mph - N/A   Scattered Clouds
3:50 PM 44.6 °F 38.1 °F 39.2 °F 81% 29.86 in 6.2 mi NW 13.8 mph - N/A   Partly Cloudy
4:20 PM 42.8 °F 35.8 °F 37.4 °F 81% 29.89 in 6.2 mi NNW 13.8 mph - N/A   Partly Cloudy
4:50 PM 42.8 °F 35.4 °F 37.4 °F 81% 29.89 in 6.2 mi NNW 15.0 mph - N/A   Scattered Clouds
5:20 PM 42.8 °F 35.4 °F 37.4 °F 81% 29.89 in 6.2 mi NNW 15.0 mph - N/A   Mostly Cloudy
5:50 PM 42.8 °F 35.8 °F 37.4 °F 81% 29.89 in 6.2 mi NNW 13.8 mph - N/A   Mostly Cloudy
6:20 PM 42.8 °F 35.4 °F 37.4 °F 81% 29.89 in 6.2 mi NNW 15.0 mph - N/A   Mostly Cloudy
6:50 PM 42.8 °F 36.2 °F 37.4 °F 81% 29.89 in 6.2 mi NNW 12.7 mph - N/A   Mostly Cloudy
7:20 PM 41.0 °F 33.5 °F 35.6 °F 81% 29.89 in 6.2 mi NNW 13.8 mph - N/A   Scattered Clouds
8:20 PM 39.2 °F 30.5 °F 35.6 °F 87% 29.89 in 6.2 mi NNW 16.1 mph - N/A   Scattered Clouds
8:50 PM 39.2 °F 30.8 °F 33.8 °F 81% 29.92 in 6.2 mi NNW 15.0 mph - N/A   Partly Cloudy
9:20 PM 39.2 °F 30.8 °F 35.6 °F 87% 29.92 in 6.2 mi NNW 15.0 mph - N/A   Scattered Clouds
9:50 PM 39.2 °F 30.8 °F 33.8 °F 81% 29.92 in 6.2 mi NNW 15.0 mph - N/A   Mostly Cloudy
10:20 PM 37.4 °F 28.9 °F 33.8 °F 87% 29.92 in 6.2 mi NNW 13.8 mph - N/A   Scattered Clouds
10:50 PM 37.4 °F 29.3 °F 33.8 °F 87% 29.92 in 6.2 mi NNW 12.7 mph - N/A   Scattered Clouds
11:20 PM 37.4 °F 29.3 °F 32.0 °F 81% 29.89 in 6.2 mi NNW 12.7 mph - N/A   Partly Cloudy
11:50 PM 37.4 °F 29.3 °F 32.0 °F 81% 29.89 in 6.2 mi NNW 12.7 mph - N/A   Partly Cloudy